Location: Montreal
(45.5000°N, 73.5833°W)
Time: 21:24:17
(UTC-05:00)

Vanguard 2 - Visible Passes

Search period start: 10 December 2017 00:00
Search period end: 20 December 2017 00:00
Orbit: 553 x 2939 km, 32.9° (Epoch: 09 December)

Date Brightness Start Highest point End Pass type
(mag) Time Alt. Az. Time Alt. Az. Time Alt. Az.
10 Dec 9.3 17:24:47 10° SW 17:27:34 15° S 17:30:02 10° SE visible
11 Dec 9.3 17:42:27 10° SW 17:45:25 16° S 17:48:02 10° SE visible
12 Dec 9.3 18:00:19 10° SW 18:03:15 16° S 18:05:48 10° SSE visible
13 Dec 9.3 18:18:25 10° SW 18:21:02 15° SSW 18:23:05 11° SSE visible
14 Dec 9.5 18:36:49 10° SW 18:38:48 13° SSW 18:40:23 11° S visible
15 Dec 9.6 16:44:40 10° SW 16:49:15 21° S 16:52:48 10° SE visible
16 Dec 9.6 17:02:40 10° WSW 17:07:04 20° SSW 17:10:30 10° SE visible
17 Dec 9.7 17:20:50 10° WSW 17:24:49 18° SSW 17:28:01 10° SSE visible
18 Dec 9.8 17:39:15 10° WSW 17:42:31 15° SSW 17:45:14 10° S visible
19 Dec 10.1 17:58:13 10° SW 18:00:07 12° SSW 18:01:50 10° S visible
